Regional Weather Roundup
Issued by NWS Green Bay, WI

Home | Current Version | Previous Version | Graphics & Text | Print | Product List | Glossary Off
Versions: 1 2 3 4 5 6 7 8 9 10 11 12 13 14 15 16 17 18 19 20 21 22 23 24 25 26 27 28 29 30 31 32 33 34 35 36 37 38 39 40 41 42 43 44 45 46 47 48 49 50

000
ASUS43 KGRB 291700
RWRGRB

NORTH-CENTRAL AND NORTHEAST WISCONSIN REGIONAL WEATHER ROUNDUP
NATIONAL WEATHER SERVICE GREEN BAY WI
1200 PM CDT SAT AUG 29 2015

WIZ005-009-010>012-018-019-291800-
NORTH CENTRAL WISCONSIN

CITY           SKY/WX    TMP DP  RH WIND       PRES   REMARKS
IRONWOOD       MOSUNNY   70  61  73 SW6       30.02F
MANITOWISH WTR NOT AVBL
ARBOR VITAE    NOT AVBL
EAGLE RIVER    NOT AVBL
LAND O LAKES   NOT AVBL
RHINELANDER    PTSUNNY   68  59  73 SW8       30.09S
PHILLIPS       SUNNY     68  59  72 SW5       30.08S
ANTIGO         NOT AVBL
TOMAHAWK       NOT AVBL
MERRILL        NOT AVBL
$$

WIZ013-073-291800-
NORTHEAST WISCONSIN

CITY           SKY/WX    TMP DP  RH WIND       PRES   REMARKS
IRON MOUNTAIN  PTSUNNY   71  58  63 S7        30.06S
MARINETTE      CLOUDY    64  57  77 S5        30.08S
$$

WIZ017-030-035>037-045-291800-
CENTRAL WISCONSIN

CITY           SKY/WX    TMP DP  RH WIND       PRES   REMARKS
MEDFORD        NOT AVBL
WAUSAU         CLOUDY    64  59  83 CALM      30.07S
MOSINEE        CLOUDY    63  61  94 E3        30.09S
MARSHFIELD     CLOUDY    65  58  78 CALM      30.07S
WISC RAPIDS    NOT AVBL
STEVENS POINT  NOT AVBL
WAUPACA        NOT AVBL
SHAWANO        NOT AVBL
CLINTONVILLE   CLOUDY    63  61  94 SE6       30.07F
WAUTOMA        NOT AVBL
$$

WIZ038-039-048-051-291800-
FOX VALLEY

CITY           SKY/WX    TMP DP  RH WIND       PRES   REMARKS
NWS GREEN BAY  CLOUDY    65  61  87 E3        30.08S FOG
APPLETON       CLOUDY    64  63  94 E3        30.06R
OSHKOSH        CLOUDY    64  60  87 SE5       30.06R
FOND DU LAC    CLOUDY    66  62  87 SE6       30.06R
$$

WIZ022-050-052-291800-
EAST CENTRAL WISCONSIN

CITY           SKY/WX    TMP DP  RH WIND       PRES   REMARKS
EPHRAIM        CLOUDY    66  60  81 S8        30.08S
STURGEON BAY   CLOUDY    64  59  82 S12       30.11S
MANITOWOC      NOT AVBL
SHEBOYGAN      CLOUDY    64  62  93 S5        30.06F
$$

LMZ563-521-522-541>543-291800-
LAKESHORE

STATION/POSITION TIME  TEMP    WIND        PRES    VSBY  WAVE
                       AIR SEA DIR/SP/G                  HT/PER
                 (UTC) (F)     (DEG/KT/KT) (MB)    (MI)  (FT/S)
SHEBOYGAN LKSHOR 1600   56     190/  4/  5 1018.8R
ALGOMA MARINA    1614             CALM       N/A
NORTHPORT PIER   1600   63     160/  7/ 11 1018.6R
N MID LAKE BUOY  1550   63 64  200/ 12/ 16 1018.2S         1/ 4
S GREEN BAY BUOY 1600   60 62  170/  4/  4 1020.1R
SISTER BAY LKSHO 1604   65     190/ 11/ 12   N/A
CHAMBERS ISLAND  1600   63     160/  2/ 12 1019.0R
$$



USA.gov is the U.S. government's official web portal to all federal, state and local government web resources and services.